• In Hungary
  • List of Countries
  • For 7 days
  • Water Temperature
  • Satellite Maps
  • Weather Map
  • News
  • Weather Widgets
  • user-avatar
    Login

    Hourly Weather Zavii

    Today, 18 January, Thursday

    Time Temperature Precipitation Wind Pressure Humidity
    00:00 -4°C° 0 mm 2 mps 713 mmHg 100%
    01:00 -5°C° 0 mm 2 mps 714 mmHg 100%
    02:00 -2°C° 0 mm 1 mps 715 mmHg 92%
    03:00 -5°C° 0 mm 2 mps 715 mmHg 96%
    04:00 -6°C° 0 mm 3 mps 716 mmHg 98%
    05:00 -6°C° 0 mm 3 mps 716 mmHg 100%
    06:00 -7°C° 0.3 mm 4 mps 717 mmHg 100%
    07:00 -7°C° 0 mm 5 mps 718 mmHg 100%
    08:00 -6°C° 0 mm 5 mps 718 mmHg 100%
    09:00 -6°C° 0 mm 5 mps 719 mmHg 100%
    10:00 -5°C° 0 mm 4 mps 719 mmHg 100%
    11:00 -6°C° 0 mm 5 mps 720 mmHg 99%
    12:00 -4°C° 0 mm 4 mps 720 mmHg 98%
    13:00 -2°C° 0 mm 3 mps 721 mmHg 96%
    14:00 -2°C° 0 mm 3 mps 721 mmHg 95%
    15:00 -2°C° 0 mm 2 mps 721 mmHg 95%
    16:00 0°C° 0 mm 1 mps 720 mmHg 93%
    17:00 -2°C° 0 mm 0 mps 720 mmHg 92%
    18:00 -4°C° 0 mm 2 mps 720 mmHg 97%
    19:00 -6°C° 0 mm 3 mps 719 mmHg 95%
    20:00 -6°C° 0 mm 3 mps 719 mmHg 82%
    21:00 -6°C° 0 mm 3 mps 718 mmHg 78%
    22:00 -7°C° 0 mm 3 mps 717 mmHg 84%
    23:00 -7°C° 0 mm 4 mps 716 mmHg 85%

    Tomorrow, 19 January, Friday

    Time Temperature Precipitation Wind Pressure Humidity
    00:00 -5°C° 0 mm 4 mps 715 mmHg 87%
    01:00 -4°C° 0 mm 8 mps 715 mmHg 74%
    02:00 -4°C° 0 mm 10 mps 715 mmHg 76%
    03:00 -4°C° 0 mm 8 mps 715 mmHg 81%
    04:00 -3°C° 0 mm 7 mps 715 mmHg 82%
    05:00 -3°C° 0 mm 7 mps 715 mmHg 81%
    06:00 -3°C° 0 mm 7 mps 714 mmHg 81%
    07:00 -4°C° 0 mm 8 mps 715 mmHg 82%
    08:00 -3°C° 0 mm 7 mps 715 mmHg 82%
    09:00 -3°C° 0 mm 7 mps 716 mmHg 84%
    10:00 -2°C° 0 mm 7 mps 717 mmHg 86%
    11:00 -2°C° 0 mm 8 mps 718 mmHg 86%
    12:00 -1°C° 0 mm 8 mps 718 mmHg 84%
    13:00 -1°C° 0 mm 8 mps 719 mmHg 84%
    14:00 -2°C° 0 mm 8 mps 719 mmHg 83%
    15:00 -2°C° 0 mm 8 mps 720 mmHg 83%
    16:00 -2°C° 0 mm 7 mps 720 mmHg 84%
    17:00 -3°C° 0 mm 7 mps 721 mmHg 84%
    18:00 -4°C° 0 mm 6 mps 721 mmHg 87%
    19:00 -5°C° 0 mm 5 mps 721 mmHg 89%
    20:00 -5°C° 0 mm 4 mps 721 mmHg 91%
    21:00 -5°C° 0 mm 4 mps 722 mmHg 89%
    22:00 -5°C° 0 mm 3 mps 722 mmHg 88%
    23:00 -4°C° 0 mm 2 mps 723 mmHg 86%

    Day after tomorrow, 20 January, Saturday

    Time Temperature Precipitation Wind Pressure Humidity
    00:00 -4°C° 0 mm 2 mps 723 mmHg 85%
    01:00 -4°C° 0 mm 2 mps 723 mmHg 84%
    02:00 -4°C° 0 mm 2 mps 724 mmHg 86%
    03:00 -3°C° 0 mm 1 mps 724 mmHg 89%
    04:00 -3°C° 0 mm 1 mps 724 mmHg 90%
    05:00 -7°C° 0 mm 3 mps 724 mmHg 89%
    06:00 -7°C° 0 mm 3 mps 724 mmHg 93%
    07:00 -7°C° 0 mm 3 mps 724 mmHg 92%
    08:00 -5°C° 0 mm 2 mps 724 mmHg 88%
    09:00 -5°C° 0 mm 2 mps 724 mmHg 80%
    10:00 -4°C° 0 mm 2 mps 724 mmHg 73%
    11:00 -3°C° 0 mm 2 mps 724 mmHg 75%
    12:00 -2°C° 0 mm 2 mps 724 mmHg 80%
    13:00 +2°C° 0 mm 1 mps 724 mmHg 84%
    14:00 +1°C° 0 mm 0 mps 724 mmHg 88%
    15:00 +2°C° 0 mm 1 mps 723 mmHg 95%
    16:00 -1°C° 0 mm 2 mps 723 mmHg 97%
    17:00 -2°C° 0 mm 2 mps 723 mmHg 92%
    18:00 -4°C° 0 mm 3 mps 723 mmHg 97%
    19:00 -3°C° 0 mm 2 mps 723 mmHg 97%
    20:00 -2°C° 0 mm 2 mps 723 mmHg 91%
    21:00 -3°C° 0 mm 2 mps 722 mmHg 89%
    22:00 -4°C° 0 mm 3 mps 722 mmHg 80%
    23:00 -5°C° 0 mm 3 mps 722 mmHg 87%

    21 January, Sunday

    Time Temperature Precipitation Wind Pressure Humidity
    00:00 -5°C° 0 mm 3 mps 722 mmHg 85%
    01:00 -4°C° 0 mm 2 mps 722 mmHg 80%
    02:00 -4°C° 0 mm 2 mps 722 mmHg 78%
    03:00 -4°C° 0 mm 2 mps 722 mmHg 72%
    04:00 -4°C° 0 mm 2 mps 722 mmHg 72%
    05:00 -3°C° 0 mm 1 mps 722 mmHg 76%
    06:00 -3°C° 0 mm 1 mps 722 mmHg 74%
    07:00 -2°C° 0 mm 1 mps 722 mmHg 70%
    08:00 -4°C° 0 mm 2 mps 723 mmHg 72%
    09:00 -4°C° 0.2 mm 2 mps 723 mmHg 88%
    10:00 -3°C° 0.5 mm 1 mps 724 mmHg 100%
    11:00 -4°C° 0.1 mm 0 mps 724 mmHg 100%
    12:00 -3°C° 0.2 mm 0 mps 724 mmHg 100%
    13:00 -1°C° 0.3 mm 1 mps 724 mmHg 100%
    14:00 -3°C° 0.5 mm 2 mps 725 mmHg 100%
    15:00 -4°C° 0.9 mm 3 mps 725 mmHg 100%
    16:00 -4°C° 0.9 mm 3 mps 726 mmHg 100%
    17:00 -3°C° 0.8 mm 2 mps 726 mmHg 100%
    18:00 -5°C° 0.5 mm 3 mps 727 mmHg 100%
    19:00 -5°C° 0.4 mm 3 mps 727 mmHg 100%
    20:00 -6°C° 0.3 mm 3 mps 727 mmHg 100%
    21:00 -6°C° 0.2 mm 3 mps 728 mmHg 100%
    22:00 -6°C° 0.1 mm 3 mps 728 mmHg 100%
    23:00 -7°C° 0.2 mm 3 mps 728 mmHg 100%

    22 January, Monday

    Time Temperature Precipitation Wind Pressure Humidity
    00:00 -7°C° 0.2 mm 3 mps 728 mmHg 100%
    01:00 -9°C° 0.2 mm 4 mps 728 mmHg 100%
    02:00 -9°C° 0.1 mm 3 mps 729 mmHg 100%

    23 January, Tuesday

    Time Temperature Precipitation Wind Pressure Humidity
    Show more